Location: Praha
(50.0830°N, 14.4670°E)
Time: 00:14:03
(UTC+02:00)

ISS - Pass Details

Date: 27 October 2020
Orbit: 417 x 420 km, 51.6° (Epoch: 23 October)

Event Time Altitude Azimuth Distance (km) Brightness Sun altitude
Exits shadow 04:21:43 25° 144° (SE) 873 -1.9 -23.3°
Drops below altitude 10° 04:24:31 10° 87° (E) 1,497 0.2 -22.9°
Sets 04:26:49 0° 74° (ENE) 2,364 1.5 -22.5°
